Погода в Кяхте

Россия / Самарская область     53°28′56″N   48°44′56″E
темп.,
°C
ветер,
м/с
пор.,
м/с
влажн.,
%
обл.,
%
осадки,
мм/ч
давл.,
гПа
погр.,
м
20 мая, пт
пт2001:00+6з237615 0.0 101138
04:00+5зюз228525 0.0 101011
07:00+7з2285100 0.6 1011174
10:00+10сз3469100 1.1 1010968
13:00+12сз5556100 0.4 10091474
16:00+10ссз6763100 1.2 10081304
19:00+8с697095 0.5 10091006
22:00+5ссз611755 0.5 1009578
21 мая, сб
сб2101:00+3сз411845 0.0 1009422
04:00+2сз612871 0.0 1008452
07:00+4ссз712815 0.0 1008544
10:00+7ссз8106298 0.1 10081661
13:00+8с8105994 0.4 10081732
16:00+9ссз795897 1.0 10081652
19:00+8ссз4767100 0.2 10081120
22:00+6сз1174100 0.3 100811
22 мая, вс
вс2201:00+3з228547 0.0 100620
04:00+2зсз368893 0.0 1006112
07:00+5сз36805 0.0 1004326
10:00+8сз445695 0.1 10031438
13:00+9зсз3451100 0.2 10021646
16:00+10сз445366 0.5 10011458
19:00+9с3467100 0.3 1000691
22:00+5ссв3378100 0.3 100147
23 мая, пн
пн2301:00+3ссз22845 0.0 100020
04:00+2сз34885 0.0 100065
07:00+4зсз46755 0.0 1001352
10:00+8зсз565775 0.0 10011528
13:00+8зсз5756100 0.1 10011344
16:00+8зсз5761100 0.1 10031194
19:00+8з476867 0.0 10031043
22:00+5зюз37845 0.1 1004143
24 мая, вт
вт2401:00+4зюз37915 0.0 1004115
04:00+3зсз499499 0.0 1005257
07:00+5зюз3485100 0.0 1005261
10:00+8сз557496 0.1 10061000
13:00+9зсз676398 0.3 10061354
16:00+9сз566292 0.3 10071176
19:00+9зсз236484 0.0 10081019
22:00+6ссз358492 0.1 1009205